Buffalo, MN

5:29 AM CDT on October 22, 2017 (GMT -0500)
Buffalo

Weather History for KCFE - April, 2014

Change the Weather History Date:

Saturday, April 5, 2014

  Actual Average (KMIC) Record (KMIC)
Temperature  
Mean Temperature 32 °F -  
Max Temperature 45 °F 48 °F 73 °F (2005)
Min Temperature 20 °F 31 °F 14 °F (2002)
Degree Days  
Heating Degree Days 32    
Moisture  
Dew Point 28 °F    
Average Humidity 78    
Maximum Humidity 95    
Minimum Humidity 58    
Precipitation  
Precipitation 0.00 in - - ()
Sea Level Pressure  
Sea Level Pressure 30.03 in    
Wind  
Wind Speed 4 mph (SSE)    
Max Wind Speed 13 mph    
Max Gust Speed 21 mph    
Visibility 9 miles    
Events      
Averages and records for this station are not official NWS values.
T = Trace of Precipitation, MM = Missing Value Source: NWS Daily Summary

Daily Weather History Graph

Daily Weather History Graph

Search for Another Location

Airport or City:

Trip Planner

Search our weather history database for the weather conditions in past years. The results will help you decide how hot, cold, wet, or windy it might be!

Date:

Astronomy

Apr. 05, 2014 Rise Set
Actual Time 6:48 AM CDT 7:48 PM CDT
Civil Twilight 6:18 AM CDT 8:18 PM CDT
Nautical Twilight 5:42 AM CDT 8:54 PM CDT
Astronomical Twilight 5:05 AM CDT 9:32 PM CDT
Moon 10:47 AM CDT (4/5) 1:08 AM CDT (4/5)
Length of Visible Light 14h 00m
Length of Day
13h 00m
Waxing Crescent, 34% of the Moon is Illuminated
Apr 5
Waxing Crescent
Apr 7
First Quarter
Apr 15
Full
Apr 22
Last Quarter
Apr 29
New

Hourly Weather History & Observations

Time (CDT) Temp. Windchill Dew Point Humidity Pressure Visibility Wind Dir Wind Speed Gust Speed Precip Events Conditions
12:15 AM 29.1 °F 25.4 °F 25.3 °F 86% 30.05 in 10.0 mi West 3.5 mph - N/A   Clear
12:35 AM 28.6 °F - 25.3 °F 88% 30.05 in 10.0 mi Calm Calm - N/A   Clear
12:55 AM 27.9 °F - 24.6 °F 88% 30.06 in 10.0 mi Calm Calm - N/A   Clear
1:16 AM 26.2 °F - 23.7 °F 90% 30.06 in 10.0 mi Calm Calm - N/A   Clear
1:35 AM 26.4 °F - 23.9 °F 90% 30.06 in 10.0 mi Calm Calm - N/A   Clear
1:55 AM 25.2 °F 20.9 °F 22.8 °F 91% 30.07 in 10.0 mi WSW 3.5 mph - N/A   Clear
2:16 AM 25.7 °F - 23.7 °F 92% 30.07 in 10.0 mi Calm Calm - N/A   Clear
2:35 AM 25.7 °F - 23.7 °F 92% 30.07 in 10.0 mi Calm Calm - N/A   Clear
2:55 AM 24.8 °F - 22.8 °F 92% 30.08 in 10.0 mi Calm Calm - N/A   Clear
3:16 AM 23.9 °F - 22.3 °F 94% 30.08 in 7.0 mi Calm Calm - N/A   Clear
3:35 AM 23.9 °F - 22.3 °F 94% 30.08 in 7.0 mi Calm Calm - N/A   Clear
3:55 AM 24.3 °F - 22.8 °F 94% 30.08 in 7.0 mi Calm Calm - N/A   Clear
4:16 AM 23.7 °F - 22.3 °F 94% 30.08 in 7.0 mi Calm Calm - N/A   Clear
4:36 AM 22.3 °F - 20.7 °F 93% 30.08 in 4.0 mi Calm Calm - N/A   Clear
4:55 AM 22.8 °F - 21.2 °F 93% 30.08 in 4.0 mi Calm Calm - N/A   Clear
5:16 AM 22.8 °F - 21.4 °F 94% 30.08 in 3.0 mi Calm Calm - N/A   Clear
5:36 AM 23.0 °F - 21.4 °F 94% 30.08 in 4.0 mi Calm Calm - N/A   Clear
5:55 AM 22.8 °F - 21.2 °F 93% 30.08 in 1.2 mi Calm Calm - N/A   Mist
6:16 AM 21.9 °F - 20.3 °F 93% 30.07 in 4.0 mi Calm Calm - N/A   Clear
6:36 AM 20.7 °F - 19.0 °F 93% 30.08 in 5.0 mi Calm Calm - N/A   Clear
6:55 AM 20.1 °F - 18.5 °F 93% 30.08 in 3.0 mi Calm Calm - N/A   Clear
7:36 AM 20.1 °F - 18.5 °F 93% 30.10 in 4.0 mi Calm Calm - N/A   Clear
7:55 AM 23.2 °F - 21.9 °F 95% 30.10 in 7.0 mi Calm Calm - N/A   Clear
8:16 AM 24.8 °F - 23.5 °F 95% 30.10 in 7.0 mi Calm Calm - N/A   Clear
8:36 AM 25.5 °F 21.3 °F 24.1 °F 94% 30.10 in 10.0 mi South 3.5 mph - N/A   Clear
8:55 AM 26.8 °F 22.8 °F 25.5 °F 95% 30.11 in 10.0 mi South 3.5 mph - N/A   Clear
9:16 AM 28.0 °F 21.7 °F 26.6 °F 94% 30.11 in 10.0 mi South 5.8 mph - N/A   Clear
9:36 AM 29.8 °F 23.9 °F 28.2 °F 94% 30.10 in 10.0 mi South 5.8 mph - N/A   Clear
9:55 AM 32.0 °F 25.6 °F 26.4 °F 80% 30.10 in 10.0 mi South 6.9 mph - N/A   Clear
10:15 AM 33.4 °F 25.4 °F 26.2 °F 75% 30.09 in 10.0 mi South 10.4 mph - N/A   Clear
10:36 AM 34.5 °F 26.7 °F 26.2 °F 72% 30.09 in 10.0 mi South 10.4 mph 16.1 mph N/A   Clear
10:55 AM 35.6 °F 29.9 °F 26.4 °F 69% 30.09 in 10.0 mi South 6.9 mph - N/A   Clear
11:15 AM 36.5 °F 30.3 °F 26.6 °F 67% 30.09 in 10.0 mi South 8.1 mph 16.1 mph N/A   Clear
11:36 AM 37.6 °F 30.0 °F 27.1 °F 66% 30.09 in 10.0 mi South 11.5 mph - N/A   Clear
11:55 AM 38.3 °F 31.4 °F 27.3 °F 65% 30.08 in 10.0 mi South 10.4 mph 18.4 mph N/A   Clear
12:15 PM 39.2 °F 32.0 °F 27.7 °F 63% 30.08 in 10.0 mi South 11.5 mph 16.1 mph N/A   Clear
12:36 PM 39.6 °F 33.0 °F 28.2 °F 64% 30.08 in 10.0 mi South 10.4 mph 18.4 mph N/A   Clear
12:55 PM 39.7 °F 32.3 °F 28.2 °F 63% 30.07 in 10.0 mi South 12.7 mph 20.7 mph N/A   Clear
1:15 PM 41.0 °F 35.2 °F 28.9 °F 62% 30.06 in 10.0 mi South 9.2 mph 17.3 mph N/A   Clear
1:36 PM 41.9 °F 35.9 °F 29.5 °F 61% 30.05 in 10.0 mi South 10.4 mph 16.1 mph N/A   Clear
1:55 PM 42.1 °F 35.7 °F 29.3 °F 61% 30.05 in 10.0 mi SSE 11.5 mph 19.6 mph N/A   Clear
2:15 PM 42.8 °F 36.6 °F 29.3 °F 59% 30.04 in 10.0 mi South 11.5 mph 19.6 mph N/A   Clear
2:36 PM 43.9 °F 38.3 °F 29.8 °F 58% 30.03 in 10.0 mi South 10.4 mph 19.6 mph N/A   Clear
2:55 PM 44.2 °F 38.0 °F 30.7 °F 59% 30.02 in 10.0 mi SE 12.7 mph 18.4 mph N/A   Clear
3:15 PM 43.7 °F 37.7 °F 31.3 °F 62% 30.02 in 10.0 mi SSE 11.5 mph - N/A   Clear
3:36 PM 43.7 °F 38.6 °F 32.0 °F 63% 30.01 in 10.0 mi SSE 9.2 mph - N/A   Clear
3:55 PM 44.2 °F 38.8 °F 32.2 °F 63% 30.00 in 10.0 mi SSE 10.4 mph 17.3 mph N/A   Clear
4:15 PM 44.8 °F 39.9 °F 32.7 °F 63% 30.00 in 10.0 mi SSE 9.2 mph - N/A   Clear
4:36 PM 44.6 °F 40.2 °F 32.9 °F 64% 29.99 in 10.0 mi SSE 8.1 mph - N/A   Clear
4:55 PM 44.6 °F 40.7 °F 33.4 °F 65% 29.99 in 10.0 mi SSE 6.9 mph - N/A   Scattered Clouds
5:15 PM 44.1 °F 39.0 °F 33.8 °F 67% 29.99 in 10.0 mi SSE 9.2 mph - N/A   Mostly Cloudy
5:35 PM 44.6 °F 40.2 °F 34.5 °F 68% 29.98 in 10.0 mi SSE 8.1 mph - N/A   Overcast
5:55 PM 45.5 °F 41.3 °F 34.9 °F 66% 29.98 in 10.0 mi SSE 8.1 mph - N/A   Overcast
6:16 PM 45.5 °F 40.8 °F 35.4 °F 68% 29.97 in 10.0 mi SSE 9.2 mph - N/A   Overcast
6:35 PM 45.5 °F 41.3 °F 35.6 °F 68% 29.97 in 10.0 mi SSE 8.1 mph - N/A   Overcast
6:55 PM 45.5 °F 43.2 °F 35.6 °F 68% 29.97 in 10.0 mi SSE 4.6 mph - N/A   Mostly Cloudy
7:16 PM 45.0 °F 41.2 °F 36.0 °F 71% 29.95 in 10.0 mi SE 6.9 mph - N/A   Mostly Cloudy
7:35 PM 44.6 °F 39.7 °F 36.0 °F 72% 29.95 in 10.0 mi SE 9.2 mph - N/A   Mostly Cloudy
7:55 PM 44.6 °F 40.2 °F 35.8 °F 71% 29.95 in 10.0 mi SSE 8.1 mph - N/A   Mostly Cloudy
8:16 PM 44.6 °F 42.2 °F 36.0 °F 72% 29.96 in 10.0 mi SSE 4.6 mph - N/A   Overcast
8:35 PM 44.1 °F 39.5 °F 36.1 °F 74% 29.96 in 10.0 mi SSE 8.1 mph - N/A   Mostly Cloudy
8:55 PM 43.9 °F 40.5 °F 36.3 °F 75% 29.96 in 10.0 mi SSE 5.8 mph - N/A   Mostly Cloudy
9:16 PM 43.2 °F 38.4 °F 36.0 °F 76% 29.96 in 10.0 mi SSE 8.1 mph - N/A   Scattered Clouds
9:35 PM 42.8 °F 38.0 °F 35.8 °F 76% 29.95 in 10.0 mi SSE 8.1 mph - N/A   Clear
9:55 PM 42.8 °F 38.0 °F 35.4 °F 75% 29.95 in 10.0 mi SSE 8.1 mph - N/A   Clear
10:16 PM 42.4 °F 37.5 °F 34.7 °F 74% 29.95 in 10.0 mi SSE 8.1 mph - N/A   Clear
10:35 PM 41.9 °F 36.3 °F 34.2 °F 74% 29.95 in 10.0 mi SSE 9.2 mph - N/A   Scattered Clouds
10:55 PM 42.1 °F 37.7 °F 33.8 °F 72% 29.94 in 10.0 mi SSE 6.9 mph - N/A   Mostly Cloudy
11:16 PM 42.3 °F 36.8 °F 33.1 °F 70% 29.94 in 10.0 mi SSE 9.2 mph - N/A   Mostly Cloudy
11:35 PM 42.3 °F 37.9 °F 32.5 °F 68% 29.94 in 10.0 mi SSE 6.9 mph - N/A   Overcast
11:55 PM 42.1 °F 36.6 °F 32.0 °F 67% 29.93 in 10.0 mi SSE 9.2 mph - N/A   Overcast